Regional Weather Roundup
Issued by NWS

Home | Current Version | Previous Version | Text Only | Print | Product List | Glossary On
Versions: 1 2 3 4 5 6 7 8 9 10 11 12 13 14 15 16 17 18 19 20 21 22 23 24 25 26 27 28 29 30 31 32 33 34 35 36 37 38 39 40 41 42 43 44 45 46 47 48 49 50
000
ASUS46 KSTO 150415
RWRCA

NORTHERN AND CENTRAL CA REGIONAL WEATHER ROUNDUP
NATIONAL WEATHER SERVICE SACRAMENTO CA
800 PM PST THU DEC 14 2017

NOTE: FAIR INDICATES FEW OR NO CLOUDS BELOW 12,000 FEET WITH NO
SIGNIFICANT WEATHER AND/OR OBSTRUCTIONS TO VISIBILITY.

CAZ001-003-150500-
NORTHWEST AREA

CITY           SKY/WX    TMP DP  RH WIND       PRES   REMARKS
CRESCENT CITY  CLOUDY    47  45  93 CALM      30.17F FOG
UKIAH          CLEAR     46  39  76 CALM      30.16R
$$

CAZ006-505>513-150500-
BAY AREA

CITY           SKY/WX    TMP DP  RH WIND       PRES   REMARKS
SANTA ROSA     CLEAR     42  40  92 N6        30.14R
SAN RAFAEL     N/A       51  MM  MM MISG
NAPA           CLEAR     42  38  85 N6        30.16R
CONCORD        CLEAR     47  39  74 CALM      30.15S
OAKLAND CITY   N/A      MM  MM  MM MISG
OAKLAND        PTCLDY    53  44  71 CALM      30.14S
SAN FRAN CITY  N/A       57  MM  49 MISG
SAN FRAN ARPT  CLEAR     56  42  59 CALM      30.13S
LIVERMORE      CLEAR     46  35  65 CALM      30.14S
HAYWARD        CLEAR     56  31  38 NE7       30.13S
REDWOOD CITY   N/A       48  MM  65 MISG
MOFFETT ARPT   CLEAR     54  37  52 CALM      30.14S
SAN JOSE ARPT  CLEAR     55  39  54 SE6       30.14R
$$
CAZ034-037-514>518-150500-
CENTRAL COAST

CITY           SKY/WX    TMP DP  RH WIND       PRES   REMARKS
WATSONVILLE    CLEAR     51  40  65 NW3       30.13R
SALINAS        CLEAR     51  43  74 CALM      30.13R
MONTEREY       CLEAR     49  36  61 E5        30.12R
SAN LUIS OBISP CLEAR     49  36  61 E5        30.11R
SANTA MARIA    CLEAR     48  29  47 SE5       30.12R
$$
CAZ015-016-150500-
NORTHERN SACRAMENTO VALLEY

CITY           SKY/WX    TMP DP  RH WIND       PRES   REMARKS
REDDING        PTCLDY    52  39  61 SW5       30.17R
RED BLUFF      PTCLDY    46  39  76 CALM      30.18R
OROVILLE       CLEAR     45  41  86 NE3       30.18R
$$
CAZ016>018-150500-
SOUTHERN SACRAMENTO VALLEY

CITY           SKY/WX    TMP DP  RH WIND       PRES   REMARKS
AUBURN         PTCLDY    45  43  93 CALM      30.18R
BEALE AFB      PTCLDY    44  40  85 NE3       30.16R
LINCOLN        FAIR      37  36  93 NE7       30.17R WCI  32
MARYSVILLE     PTCLDY    45  41  86 NE5       30.18R FOG
SAC INTL ARPT  CLEAR     43  38  82 E6        30.16R
MATHER AIRPORT CLEAR     43  39  87 E6        30.16R
DOWNTOWN SAC   N/A       48  MM  MM MISG
SAC EXEC ARPT  CLEAR     44  42  93 CALM      30.16R FOG
VACAVILLE      CLEAR     43  37  79 W5        30.17R
TRAVIS AFB     CLEAR     40  37  91 CALM      30.14R
$$
CAZ019>021-150500-
SAN JOAQUIN VALLEY

CITY           SKY/WX    TMP DP  RH WIND       PRES   REMARKS
STOCKTON       CLEAR     46  37  71 CALM      30.16R
MODESTO        CLEAR     44  41  89 E3        30.15S FOG
MERCED         CLEAR     49  36  61 E5        30.16R HAZE
LEMOORE        PTCLDY    41  33  73 SE6       30.18R HAZE
FRESNO         PTCLDY    48  37  65 E6        30.18S HAZE
HANFORD        CLEAR     39  37  92 SE3       30.19R FOG
PORTERVILLE    CLEAR     41  35  79 SE5       30.20R HAZE
BAKERSFIELD    CLEAR     49  33  54 E3        30.18R HAZE
$$
CAZ011-012-071-150500-
NORTHERN MOUNTAINS

CITY           SKY/WX    TMP DP  RH WIND       PRES   REMARKS
YREKA          PTCLDY    30  24  78 SE3       30.30S
MOUNT SHASTA   CLEAR     39  25  57 VRB3      30.26F
ALTURAS        PTCLDY    31  22  69 E8        30.31R WCI  23
$$
CAZ011-012-071-150500-
SIERRA NEVADA MTNS

CITY           SKY/WX    TMP DP  RH WIND       PRES   REMARKS
BLUE CANYON    PTCLDY    59  26  28 S3        30.31R
TRUCKEE        CLEAR     27  21  80 CALM      30.38S
TAHOE VLY ARPT CLEAR     27  21  78 S3        30.37R
MAMMOTH LAKES  FAIR      30   6  36 N3        30.41R
$$




USA.gov is the U.S. government's official web portal to all federal, state and local government web resources and services.